This demonstration page uses our WeatherBlox Daily Observations layout. Learn more.

Left ArrowRight Arrow

Hourly Observations for August 29, 2020

Temp ( °F °C ) Dew Point ( °F °C ) Humidity (%) Winds ( mph kmh ) Pressure ( in mb ) Visibility ( mi km ) Precip ( " mm )
12:15 am 00:15 Clear 68 20 62 16.8 82 82 N 7 11 29.94 1014 10 16 N/A
12:35 am 00:35 Clear 68 19.8 62 16.7 82 82 N 5 7 29.94 1014 10 16 N/A
12:55 am 00:55 Clear 67 19.6 62 16.8 84 84 NNW 5 7 29.96 1015 10 16 N/A
1:15 am 01:15 Clear 67 19.5 62 16.8 84 84 N 7 11 29.95 1014 10 16 N/A
1:35 am 01:35 Clear 67 19.3 62 16.7 85 85 NNW 6 9 29.96 1015 10 16 N/A
1:55 am 01:55 Clear 66 19 62 16.5 86 86 N 6 9 29.96 1014 10 16 N/A
2:15 am 02:15 Clear 66 18.8 62 16.5 87 87 N 8 13 29.95 1014 10 16 N/A
2:35 am 02:35 Clear with Nearby Thunderstorms 66 19 61 16 83 83 NNE 9 15 29.95 1014 10 16 N/A
2:55 am 02:55 Clear 66 18.8 61 16 84 84 NNE 7 11 29.94 1014 10 16 N/A
3:15 am 03:15 Clear 65 18.6 60 15.6 83 83 NNE 8 13 29.95 1014 10 16 N/A
3:35 am 03:35 Clear 65 18.5 60 15.7 84 84 NNE 7 11 29.95 1014 10 16 N/A
3:55 am 03:55 Clear 64 18 60 15.6 86 86 N 3 6 29.96 1015 10 16 N/A
4:15 am 04:15 Clear 64 17.5 60 15.7 89 89 N 3 6 29.99 1016 10 16 N/A
4:35 am 04:35 Clear 63 17.1 60 15.6 91 91 N N/A 30.00 1016 10 16 N/A
4:55 am 04:55 Clear 63 17.1 60 15.8 92 92 N N/A 30.00 1016 10 16 N/A
5:15 am 05:15 Clear 63 17.1 60 15.3 89 89 N N/A 30.01 1016 10 16 N/A
5:35 am 05:35 Clear 63 17 60 15.5 91 91 N N/A 30.01 1016 10 16 N/A
5:55 am 05:55 Clear 62 16.6 60 15.5 93 93 N 6 9 30.02 1016 10 16 N/A
6:15 am 06:15 Clear 62 16.5 60 15.3 93 93 NNE 5 7 30.01 1016 10 16 N/A
6:35 am 06:35 Clear 61 16.3 59 15.2 93 93 N N/A 30.02 1017 10 16 N/A
6:55 am 06:55 Clear 61 16 59 15 94 94 N 3 6 30.02 1017 10 16 N/A
7:15 am 07:15 Sunny 60 15.8 59 14.9 94 94 N N/A 30.03 1017 10 16 N/A
7:35 am 07:35 Mostly Cloudy 61 16 59 15 94 94 N N/A 30.04 1017 10 16 N/A
7:55 am 07:55 Mostly Cloudy 61 16 59 15.1 94 94 N N/A 30.04 1017 10 16 N/A
8:15 am 08:15 Partly Cloudy 61 16.2 60 15.4 95 95 NNE 3 6 30.04 1017 10 16 N/A
8:35 am 08:35 Sunny 62 16.5 60 15.5 94 94 NNE 6 9 30.04 1017 10 16 N/A
8:55 am 08:55 Sunny 63 17.2 60 15.6 90 90 NNE 7 11 30.02 1017 10 16 N/A
9:15 am 09:15 Sunny 64 17.9 59 15 83 83 NE 9 15 30.02 1017 10 16 N/A
9:35 am 09:35 Sunny 65 18.2 57 13.8 76 76 NE 8 13 30.00 1016 10 16 N/A
9:55 am 09:55 Sunny 67 19.2 55 12.9 67 67 NE 9 15 30.01 1016 10 16 N/A
10:15 am 10:15 Sunny 68 20 53 11.5 58 58 NE 12 19 30.00 1016 10 16 N/A
10:35 am 10:35 Sunny 69 20.6 52 11.2 55 55 NE 12 19 29.99 1016 10 16 N/A
10:55 am 10:55 Sunny 70 20.9 52 11.1 54 54 NE 10 17 30.00 1016 10 16 N/A
11:15 am 11:15 Sunny 71 21.5 52 11.2 52 52 NE 10 17 29.99 1016 10 16 N/A
11:35 am 11:35 Sunny 71 21.5 51 10.8 51 51 NE 9 15 29.98 1015 10 16 N/A
11:55 am 11:55 Sunny 72 22.4 52 11.3 50 50 NE 10 17 29.97 1015 10 16 N/A
12:15 pm 12:15 Sunny 72 22.3 51 10.8 48 48 ENE 10 17 29.97 1015 10 16 N/A
12:35 pm 12:35 Sunny 73 22.7 51 10.4 46 46 ENE 8 13 29.96 1015 10 16 N/A
12:55 pm 12:55 Sunny 73 22.8 50 9.8 44 44 NE 8 13 29.96 1015 10 16 N/A
1:15 pm 13:15 Sunny 74 23.5 51 10.4 44 44 ENE 7 11 29.96 1015 10 16 N/A
1:35 pm 13:35 Sunny 74 23.5 49 9.6 41 41 NE 6 9 29.96 1015 10 16 N/A
1:55 pm 13:55 Sunny 75 23.7 49 9.6 41 41 ESE 7 11 29.94 1014 10 16 N/A
2:15 pm 14:15 Sunny 75 24.1 50 9.8 40 40 NE 3 6 29.92 1013 10 16 N/A
2:35 pm 14:35 Sunny 76 24.6 50 9.9 40 40 E 8 13 29.92 1013 10 16 N/A
2:55 pm 14:55 Sunny 77 24.9 48 9 37 37 E 9 15 29.91 1013 10 16 N/A
3:15 pm 15:15 Sunny 77 25.1 46 8 34 34 ESE 7 11 29.89 1012 10 16 N/A
3:35 pm 15:35 Sunny 78 25.3 48 8.7 35 35 ESE 8 13 29.88 1012 10 16 N/A
3:55 pm 15:55 Hazy 78 25.6 47 8.5 34 34 SE 9 15 29.86 1011 3 5 N/A
4:15 pm 16:15 Mostly Cloudy with Haze 78 25.7 45 7 30 30 SSE 6 9 29.86 1011 2 2 N/A
4:35 pm 16:35 Hazy 78 25.4 48 8.8 35 35 E 5 7 29.87 1012 3 5 N/A
4:55 pm 16:55 Sunny 78 25.7 47 8.3 33 33 ESE 7 11 29.85 1011 7 11 N/A
5:15 pm 17:15 Hazy 78 25.6 47 8.1 33 33 ESE 6 9 29.85 1011 5 8 N/A
5:35 pm 17:35 Sunny 78 25.5 48 8.9 35 35 ESE 7 11 29.84 1011 10 16 N/A
5:55 pm 17:55 Sunny 78 25.8 48 8.9 34 34 ESE 7 11 29.83 1010 10 16 N/A
6:15 pm 18:15 Sunny 78 25.7 42 5.4 27 27 ESE 7 11 29.82 1010 10 16 N/A
6:35 pm 18:35 Sunny 77 25.1 46 7.8 33 33 ESE 8 13 29.83 1010 10 16 N/A
6:55 pm 18:55 Sunny 76 24.7 46 8 35 35 E 8 13 29.82 1010 10 16 N/A
7:15 pm 19:15 Sunny 74 23.4 50 9.9 42 42 E 6 9 29.82 1010 10 16 N/A
7:35 pm 19:35 Sunny 72 22.1 53 11.5 51 51 ESE 6 9 29.83 1010 10 16 N/A
7:55 pm 19:55 Sunny 70 20.9 55 12.7 60 60 ESE 5 7 29.84 1010 10 16 N/A
8:15 pm 20:15 Clear 69 20.5 55 12.5 60 60 SE 3 6 29.86 1011 10 16 N/A
8:35 pm 20:35 Clear 67 19.5 55 12.6 65 65 SE 3 6 29.87 1012 10 16 N/A
8:55 pm 20:55 Clear 67 19.5 55 12.8 65 65 SE 6 9 29.87 1012 10 16 N/A
9:15 pm 21:15 Clear 67 19.2 55 13 67 67 SE 6 9 29.86 1011 10 16 N/A
9:35 pm 21:35 Clear 66 19 54 12.2 65 65 SE 7 11 29.86 1011 10 16 N/A
9:55 pm 21:55 Clear 65 18.2 54 12 67 67 SE 6 9 29.86 1011 10 16 N/A
10:15 pm 22:15 Clear 64 17.6 53 11.8 69 69 SE 6 9 29.86 1011 10 16 N/A
10:35 pm 22:35 Clear 63 17.3 53 11.9 71 71 SE 6 9 29.85 1011 10 16 N/A
10:55 pm 22:55 Clear 63 17.2 53 11.7 70 70 SE 5 7 29.85 1011 10 16 N/A
11:15 pm 23:15 Clear 63 17.3 53 11.9 71 71 SSE 3 6 29.86 1011 10 16 N/A
11:35 pm 23:35 Clear 64 17.5 53 11.7 69 69 SSE 3 6 29.86 1011 10 16 N/A
11:55 pm 23:55 Clear 64 17.5 53 11.5 68 68 SSE 6 9 29.86 1011 10 16 N/A

Powered by AerisWeather